Location: ?????????
(54.7630°N, 39.4991°E)
Time: 17:46:51
(UTC+00:00)

Cosmos 1190 Rocket - Pass Details

Date: 14 April 2026
Orbit: 752 x 776 km, 74.1° (Epoch: 16 May)

Event Time Altitude Azimuth Distance (km) Brightness Sun altitude
Rises 20:39:49 0° 333° (NNW) 3,269 8.5 -25.0°
Reaches altitude 10° 20:42:14 10° 336° (NNW) 2,338 7.5 -25.0°
Maximum altitude 20:47:31 67° 59° (ENE) 844 4.2 -25.2°
Enters shadow 20:48:17 58° 104° (ESE) 900 4.1 -25.2°
